Immokalee Regional Airport [I, FL

9:04 AM EDT on September 19, 2017 (GMT -0400)
Immokalee

Weather History for KIMM - January, 2014

Change the Weather History Date:

Friday, January 10, 2014

  Actual Average (KRSW) Record (KRSW)
Temperature  
Mean Temperature 74 °F -  
Max Temperature 82 °F 74 °F 86 °F (1975)
Min Temperature 66 °F 55 °F 32 °F (1970)
Cooling Degree Days 9    
Growing Degree Days 24 (Base 50)    
Moisture  
Dew Point 75 °F    
Average Humidity 93    
Maximum Humidity 100    
Minimum Humidity 74    
Precipitation  
Precipitation 0.08 in - - ()
Sea Level Pressure  
Sea Level Pressure 30.13 in    
Wind  
Wind Speed 3 mph (ESE)    
Max Wind Speed 12 mph    
Max Gust Speed -    
Visibility 10 miles    
Events      
Averages and records for this station are not official NWS values.
T = Trace of Precipitation, MM = Missing Value Source: NWS Daily Summary

Daily Weather History Graph

Daily Weather History Graph

Search for Another Location

Airport or City:

Trip Planner

Search our weather history database for the weather conditions in past years. The results will help you decide how hot, cold, wet, or windy it might be!

Date:

Astronomy

Jan. 10, 2014 Rise Set
Actual Time 7:15 AM EST 5:51 PM EST
Civil Twilight 6:50 AM EST 6:16 PM EST
Nautical Twilight 6:21 AM EST 6:44 PM EST
Astronomical Twilight 5:53 AM EST 7:13 PM EST
Moon 1:47 PM EST (1/10) 2:30 AM EST (1/10)
Length of Visible Light 11h 26m
Length of Day
10h 36m
Waxing Gibbous, 75% of the Moon is Illuminated
Jan 10
Waxing Gibbous
Jan 15
Full
Jan 24
Last Quarter
Jan 30
New
Feb 6
First Quarter

Hourly Weather History & Observations

Time (EST) Temp. Heat Index Dew Point Humidity Pressure Visibility Wind Dir Wind Speed Gust Speed Precip Events Conditions
12:15 AM 68.0 °F - - N/A% 30.19 in 10.0 mi Calm Calm - 0.00 in   Mostly Cloudy
12:35 AM 68.0 °F - - N/A% 30.18 in 10.0 mi Calm Calm - 0.00 in   Scattered Clouds
12:55 AM 68.0 °F - - N/A% 30.18 in 10.0 mi Calm Calm - 0.00 in   Partly Cloudy
1:15 AM 68.0 °F - - N/A% 30.18 in 10.0 mi Calm Calm - 0.00 in   Mostly Cloudy
1:35 AM 69.8 °F - - N/A% 30.18 in 10.0 mi Calm Calm - 0.00 in   Mostly Cloudy
1:55 AM 68.0 °F - - N/A% 30.17 in 10.0 mi NE 5.8 mph - 0.00 in   Mostly Cloudy
2:15 AM 68.0 °F - - N/A% 30.16 in 10.0 mi Calm Calm - 0.00 in   Partly Cloudy
2:35 AM 66.2 °F - - N/A% 30.16 in 10.0 mi Calm Calm - 0.00 in   Scattered Clouds
2:55 AM 68.0 °F - - N/A% 30.16 in 10.0 mi ENE 6.9 mph - 0.00 in   Mostly Cloudy
3:15 AM 68.0 °F - - N/A% 30.15 in 10.0 mi ENE 8.1 mph - 0.00 in   Mostly Cloudy
3:35 AM 69.8 °F - - N/A% 30.16 in 10.0 mi East 9.2 mph - 0.00 in   Overcast
3:55 AM 69.8 °F - - N/A% 30.16 in 10.0 mi East 11.5 mph - 0.00 in   Overcast
4:15 AM 69.8 °F - - N/A% 30.15 in 10.0 mi East 6.9 mph - 0.00 in   Overcast
4:35 AM 69.8 °F - - N/A% 30.15 in 10.0 mi SE 5.8 mph - 0.00 in   Overcast
4:55 AM 69.8 °F - - N/A% 30.16 in 10.0 mi ESE 5.8 mph - 0.00 in   Overcast
5:15 AM 69.8 °F - - N/A% 30.16 in 5.0 mi ESE 6.9 mph - 0.00 in   Overcast
5:35 AM 69.8 °F - - N/A% 30.16 in 1.2 mi East 5.8 mph - 0.03 in   Overcast
5:55 AM 69.8 °F - - N/A% 30.16 in 8.0 mi ENE 6.9 mph - 0.06 in   Scattered Clouds
6:15 AM 68.0 °F - - N/A% 30.16 in 10.0 mi ENE 6.9 mph - 0.01 in   Clear
6:35 AM 68.0 °F - - N/A% 30.16 in 10.0 mi ENE 5.8 mph - 0.01 in   Scattered Clouds
6:55 AM 68.0 °F - - N/A% 30.15 in 10.0 mi East 5.8 mph - 0.01 in   Overcast
7:15 AM 68.0 °F - - N/A% 30.16 in 10.0 mi Calm Calm - 0.00 in   Mostly Cloudy
7:35 AM 68.0 °F - - N/A% 30.16 in 10.0 mi Calm Calm - 0.00 in   Partly Cloudy
7:55 AM 68.0 °F - - N/A% 30.17 in 10.0 mi Calm Calm - 0.00 in   Clear
8:15 AM 69.8 °F - - N/A% 30.17 in 10.0 mi SE 3.5 mph - 0.00 in   Clear
8:35 AM 69.8 °F - - N/A% 30.16 in 10.0 mi SE 6.9 mph - 0.00 in   Clear
8:55 AM 71.6 °F - - N/A% 30.17 in 10.0 mi ESE 5.8 mph - 0.00 in   Clear
9:15 AM 73.4 °F - - N/A% 30.17 in 10.0 mi SE 6.9 mph - 0.00 in   Clear
9:35 AM 73.4 °F - - N/A% 30.17 in 10.0 mi SE 5.8 mph - 0.00 in   Clear
9:55 AM 75.2 °F - 75.2 °F 100% 30.17 in 10.0 mi SE 5.8 mph - 0.00 in   Clear
10:15 AM 75.2 °F - 75.2 °F 100% 30.18 in 10.0 mi SSE 5.8 mph - 0.00 in   Clear
10:35 AM 75.2 °F - 75.2 °F 100% 30.17 in 10.0 mi SE 4.6 mph - 0.00 in   Clear
10:55 AM 75.2 °F - 75.2 °F 100% 30.17 in 10.0 mi SSE 5.8 mph - 0.00 in   Partly Cloudy
11:15 AM 75.2 °F - 75.2 °F 100% 30.16 in 10.0 mi East 3.5 mph - 0.00 in   Partly Cloudy
11:35 AM 75.2 °F - 75.2 °F 100% 30.16 in 10.0 mi Calm Calm - 0.00 in   Clear
11:55 AM 77.0 °F - 77.0 °F 100% 30.16 in 10.0 mi Calm Calm - 0.00 in   Clear
12:15 PM 77.0 °F - 77.0 °F 100% 30.15 in 10.0 mi Calm Calm - 0.00 in   Clear
12:35 PM 78.8 °F - 78.8 °F 100% 30.14 in 10.0 mi Calm Calm - 0.00 in   Clear
12:55 PM 78.8 °F - 78.8 °F 100% 30.12 in 10.0 mi East 3.5 mph - 0.00 in   Partly Cloudy
1:15 PM 78.8 °F - 78.8 °F 100% 30.11 in 10.0 mi ESE 5.8 mph - 0.00 in   Mostly Cloudy
1:35 PM 80.6 °F 87.1 °F 77.0 °F 89% 30.10 in 10.0 mi ESE 6.9 mph - 0.00 in   Partly Cloudy
1:55 PM 82.4 °F 89.5 °F 75.2 °F 79% 30.10 in 10.0 mi ESE 8.1 mph - 0.00 in   Scattered Clouds
2:15 PM 82.4 °F 89.5 °F 75.2 °F 79% 30.09 in 10.0 mi ESE 11.5 mph - 0.00 in   Scattered Clouds
2:35 PM 82.4 °F 89.5 °F 75.2 °F 79% 30.08 in 10.0 mi ESE 4.6 mph - 0.00 in   Scattered Clouds
2:55 PM 82.4 °F 88.2 °F 73.4 °F 74% 30.08 in 10.0 mi SE 4.6 mph - 0.00 in   Partly Cloudy
3:15 PM 82.4 °F 88.2 °F 73.4 °F 74% 30.07 in 10.0 mi SE 5.8 mph - 0.00 in   Clear
3:35 PM 80.6 °F 85.4 °F 73.4 °F 79% 30.06 in 10.0 mi ESE 5.8 mph - 0.01 in   Clear
3:55 PM 80.6 °F 86.2 °F 75.2 °F 84% 30.07 in 10.0 mi East 6.9 mph - 0.01 in   Partly Cloudy
4:15 PM 80.6 °F 86.2 °F 75.2 °F 84% 30.07 in 9.0 mi East 5.8 mph - 0.00 in   Partly Cloudy
4:35 PM 80.6 °F 86.2 °F 75.2 °F 84% 30.07 in 10.0 mi East 4.6 mph - 0.00 in   Partly Cloudy
4:55 PM 80.6 °F 86.2 °F 75.2 °F 84% 30.07 in 10.0 mi ESE 5.8 mph - 0.00 in   Scattered Clouds
5:15 PM 75.2 °F - 75.2 °F 100% 30.08 in 5.0 mi ESE 6.9 mph - 0.00 in   Overcast
5:35 PM 75.2 °F - 75.2 °F 100% 30.08 in 10.0 mi Calm Calm - 0.00 in   Mostly Cloudy
5:55 PM 75.2 °F - 75.2 °F 100% 30.08 in 10.0 mi Calm Calm - 0.00 in   Partly Cloudy
6:15 PM 73.4 °F - 73.4 °F 100% 30.08 in 10.0 mi East 3.5 mph - 0.00 in   Clear
6:35 PM 73.4 °F - 73.4 °F 100% 30.08 in 10.0 mi Calm Calm - 0.00 in   Clear
6:55 PM 73.4 °F - 73.4 °F 100% 30.09 in 10.0 mi Calm Calm - 0.00 in   Partly Cloudy
7:15 PM 73.4 °F - - N/A% 30.09 in 10.0 mi Calm Calm - 0.00 in   Mostly Cloudy
7:35 PM 73.4 °F - 73.4 °F 100% 30.10 in 10.0 mi Calm Calm - 0.00 in   Partly Cloudy
7:55 PM 73.4 °F - - N/A% 30.10 in 10.0 mi Calm Calm - 0.00 in   Scattered Clouds
8:15 PM 71.6 °F - - N/A% 30.11 in 10.0 mi Calm Calm - 0.00 in   Scattered Clouds
8:35 PM 71.6 °F - - N/A% 30.11 in 10.0 mi ESE 6.9 mph - 0.00 in   Partly Cloudy
8:55 PM 71.6 °F - - N/A% 30.11 in 10.0 mi SE 5.8 mph - 0.00 in   Clear
9:15 PM 71.6 °F - - N/A% 30.11 in 10.0 mi SE 5.8 mph - 0.00 in   Clear
9:35 PM 71.6 °F - - N/A% 30.12 in 10.0 mi SE 4.6 mph - 0.00 in   Clear
9:55 PM 71.6 °F - - N/A% 30.12 in 10.0 mi SE 5.8 mph - 0.00 in   Clear
10:15 PM 71.6 °F - - N/A% 30.11 in 10.0 mi SE 8.1 mph - 0.00 in   Clear
10:35 PM 71.6 °F - - N/A% 30.12 in 10.0 mi SE 5.8 mph - 0.00 in   Clear
10:55 PM 71.6 °F - - N/A% 30.12 in 10.0 mi SE 4.6 mph - 0.00 in   Clear
11:15 PM 71.6 °F - - N/A% 30.12 in 10.0 mi Calm Calm - 0.00 in   Clear
11:35 PM 69.8 °F - - N/A% 30.12 in 10.0 mi Calm Calm - 0.00 in   Clear
11:55 PM 68.0 °F - - N/A% 30.12 in 7.0 mi Calm Calm - 0.00 in   Clear